[[{"header":{"parameterUnit":"m.s-1","parameterCategory":1,"la1":30.2991,"la2":30.254,"lo1":-89.0895,"lo2":-89.0444,"dy":0.0017,"dx":0.0017,"nx":28,"ny":28,"refTime":"2024-12-13T03:00:00:Z","depth":0,"parameterNumber":2,"parameterNumberName":"U-component_of_WINDS"},"data":[0,0,0,0,0,0,0,0,0,0,0,0,0,0,0,0,0,0,0,0,0,0,0,0,0,0,0,0,0,0,0,0,0,0,0,0,0,0,0,0,0,0,0,0,0,0,0,0,0,0,0,0,0,0,0,0,0,0,-6.7751,-6.7753,0,-6.7889,-6.789,-6.7892,-6.7813,-6.7809,-6.7806,-6.7802,-6.7941,-6.7948,-6.7955,0,0,0,0,0,0,0,0,0,0,0,0,0,-6.7419,-6.7425,-6.7751,-6.7753,-6.7755,-6.7889,-6.7891,-6.7892,-6.7814,-6.7809,-6.7805,-6.78,-6.7939,-6.7947,-6.7956,0,0,0,0,0,0,0,0,0,0,0,0,0,-6.756,-6.7427,-6.7751,-6.7732,-6.7731,-6.7888,-6.7891,-6.7893,-6.7815,-6.7809,-6.7803,-6.7798,-6.7936,-6.7946,-6.7957,-6.814,0,0,-6.7991,-6.7995,0,0,0,0,0,0,0,0,-6.7552,-6.7573,-6.7733,-6.7733,-6.7733,-6.7828,-6.7824,-6.7976,-6.7816,-6.7783,-6.7802,-6.7795,-6.7908,-6.7921,-6.7959,-6.8147,-6.8153,-6.7992,-6.7998,-6.8003,-6.8006,0,0,0,0,0,0,0,-6.7543,-6.7566,-6.7806,-6.7735,-6.7736,-6.7716,-6.7729,-6.7853,-6.7876,-6.7786,-6.778,-6.7798,-6.7907,-6.7949,-6.7962,-6.8155,-6.7991,-6.8001,-6.8008,-6.8012,-6.8498,-6.8504,0,0,0,0,0,0,-6.7534,-6.7559,-6.7801,-6.781,-6.7627,-6.7726,-6.7742,-6.7803,-6.7875,-6.788,-6.7803,-6.7794,-6.7933,-6.7949,-6.7967,-6.8184,-6.8003,-6.8013,-6.8019,-6.8492,-6.85,-6.8506,0,0,0,0,0,0,-6.7528,-6.7557,-6.7796,-6.7683,-6.7712,-6.7738,-6.7808,-6.7809,-6.7851,-6.7888,-6.7891,-6.7841,-6.7929,-6.7951,-6.8098,-6.8188,-6.8018,-6.8028,-6.8484,-6.8494,-6.8503,-6.8622,0,0,0,0,0,0,-6.7518,-6.7555,-6.7625,-6.7685,-6.7718,-6.7925,-6.7814,-6.7816,-6.787,-6.786,-6.7925,-6.793,-6.7926,-6.8082,-6.8108,-6.82,-6.8037,-6.8476,-6.8489,-6.85,-6.861,-6.8634,-6.8655,0,0,0,0,0,-6.7507,-6.7653,-6.7629,-6.7659,-6.7806,-6.793,-6.7949,-6.7943,-6.7878,-6.7948,-6.7972,-6.7928,-6.8174,-6.8097,-6.8127,-6.8223,-6.8471,-6.8485,-6.8499,-6.86,-6.8629,-6.8654,0,0,0,0,0,0,-6.7602,-6.766,-6.7634,-6.7804,-6.7863,-6.7917,-6.8005,-6.7975,-6.8053,-6.8039,-6.8028,-6.8043,-6.8195,-6.8224,-6.8137,-6.8403,-6.8312,-6.8333,-6.8379,-6.8407,-6.8429,-6.8418,-6.8046,0,0,0,0,0,-6.7643,-6.7739,-6.7785,-6.793,-6.7961,-6.7979,-6.8033,-6.8023,-6.8083,-6.8107,-6.8141,-6.8201,-6.8291,-6.8351,-6.8437,-6.8615,-6.8627,-6.8695,-6.8718,-6.8736,-6.8753,-6.8848,-6.8879,-6.8553,-6.8553,-6.8553,0,0,-6.7728,-6.7772,-6.7833,-6.7951,-6.7995,-6.8094,-6.8,-6.8109,-6.8182,-6.8123,-6.8263,-6.8291,-6.8356,-6.8519,-6.8592,-6.8547,-6.8847,-6.8754,-6.8769,-6.8776,-6.8866,-6.8897,-6.8924,-6.8563,-6.8561,-6.856,0,0,-6.7933,-6.7977,-6.8102,-6.8149,-6.8217,-6.8228,-6.8259,-6.8318,-6.8334,-6.8474,-6.8432,-6.8519,-6.8676,-6.8724,-6.8769,-6.8994,-6.8955,-6.9022,-6.9139,-6.9232,-6.9257,-6.928,-6.9358,-6.9387,-6.904,-6.904,-6.904,0,-6.8029,-6.8178,-6.817,-6.8283,-6.8335,-6.8288,-6.8414,-6.8459,-6.8553,-6.8589,-6.8539,-6.8734,-6.8775,-6.8948,-6.9002,-6.9041,-6.9074,-6.9013,-6.9254,-6.9277,-6.9298,-6.9372,-6.9402,-6.9048,-6.9047,-6.9046,-6.9045,0,-6.8292,-6.8396,-6.8489,-6.8581,-6.8644,-6.8763,-6.8772,-6.8837,-6.8823,-6.8839,-6.8982,-6.903,-6.9124,-6.9165,-6.9151,-6.9336,-6.9306,-6.9255,-6.9163,-6.9336,-6.9406,-6.9435,-6.9058,-6.9056,-6.9053,-6.9052,0,0,-6.8559,-6.8645,-6.8679,-6.872,-6.8793,-6.8873,-6.899,-6.9082,-6.9137,-6.9204,-6.93,-6.9435,-6.9389,-6.944,-6.9432,-6.9514,-6.9687,-6.9453,-6.9454,-6.9493,-6.9891,-6.9926,-6.996,-6.9663,-6.9668,-6.9673,-6.9884,0,-6.8766,-6.8971,-6.8968,-6.9157,-6.9252,-6.9209,-6.931,-6.9366,-6.9385,-6.9467,-6.9488,-6.9582,-6.9515,-6.9546,-6.9625,-6.9649,-6.9766,-6.9634,-6.9751,-6.9755,-6.9733,-6.9996,-7.0034,-7.0232,-6.9912,-6.9917,-6.992,0,-6.9036,-6.9111,-6.931,-6.9369,-6.9409,-6.95,-6.9584,-6.9665,-6.9727,-6.9735,-6.9793,-6.9772,-6.989,-6.9797,-6.9958,-6.9868,-6.9917,-6.9936,-6.9943,-6.9952,-6.9846,-7.001,-7.0295,-7.0323,-6.9963,-6.996,-6.9957,0,-6.9207,-6.9359,-6.9497,-6.9534,-6.9607,-6.9672,-6.9705,-6.9761,-6.9817,-6.9891,-6.9927,-7.0014,-7.0061,-7.0129,-7.0132,-7.0064,-7.0294,-7.0201,-7.0302,-7.0302,-7.035,-7.0347,-7.0645,-7.0386,-7.0386,-7.0385,-7.0385,0,-6.9438,-6.9561,-6.9575,-6.966,-6.9796,-6.9792,-6.9926,-6.9954,-7.0005,-7.0093,-7.0062,-7.0146,-7.0146,-7.0231,-7.0235,-7.0367,-7.0389,-7.0397,-7.0396,-7.0399,-7.0397,-7.0428,-7.0413,-7.0393,-7.0392,-7.039,-7.0389,0,-6.9651,-6.9666,-6.9814,-6.9871,-6.9888,-6.9986,-7.0034,-7.0115,-7.0131,-7.0244,-7.027,-7.0296,-7.0395,-7.0405,-7.052,-7.0522,-7.0681,-7.0667,-7.066,-7.0657,-7.0757,-7.0746,-7.1082,-7.1125,-7.0842,-7.0844,-7.0847,0,-6.9796,-6.9889,-6.9957,-7.0015,-7.0052,-7.0145,-7.0202,-7.0202,-7.0262,-7.0341,-7.0411,-7.0508,-7.0584,-7.0744,-7.0772,-7.086,-7.0846,-7.0958,-7.0858,-7.0858,-7.0845,-7.0838,-7.0846,-7.0976,-7.0979,-7.0982,-7.0984,0,-7.0051,-7.0054,-7.0137,-7.0225,-7.0294,-7.0362,-7.0426,-7.0475,-7.0483,-7.0552,-7.0653,-7.0713,-7.0831,-7.0926,-7.1013,-7.1046,-7.1016,-7.1015,-7.1043,-7.1045,-7.1036,-7.104,-7.071,-7.1007,-7.1004,-7.1003,-7.1001,-7.1,-7.0232,-7.0313,-7.0373,-7.0467,-7.0516,-7.0577,-7.0655,-7.0682,-7.0766,-7.0862,-7.0858,-7.0969,-7.1028,-7.1142,-7.1182,-7.1268,-7.1231,-7.1271,-7.1281,-7.129,-7.1299,-7.1025,-7.1284,-7.1284,-7.1283,-7.1282,-7.1282,0,-7.0483,-7.052,-7.0607,-7.0698,-7.0772,-7.074,-7.0809,-7.0873,-7.0971,-7.103,-7.1106,-7.1222,-7.1315,-7.1352,-7.1442,-7.1504,-7.1492,-7.1527,-7.1521,-7.1529,-7.1329,-7.1295,-7.1535,-7.1535,-7.1535,-7.1535,-7.1535,-7.1535,-7.0622,-7.0756,-7.0766,-7.0924,-7.0961,-7.107,-7.1112,-7.1167,-7.1214,-7.1345,-7.1422,-7.1446,-7.1496,-7.159,-7.1673,-7.1681,-7.1715,-7.1755,-7.1758,-7.1569,-7.1543,-7.1519,-7.1487,-7.1763,-7.1764,-7.195,-7.1952,-7.1953]},{"header":{"parameterUnit":"m.s-1","parameterCategory":1,"la1":30.2991,"la2":30.254,"lo1":-89.0895,"lo2":-89.0444,"dy":0.0017,"dx":0.0017,"nx":28,"ny":28,"refTime":"2024-12-13T03:00:00:Z","depth":0,"parameterNumber":3,"parameterNumberName":"V-component_of_WINDS"},"data":[0,0,0,0,0,0,0,0,0,0,0,0,0,0,0,0,0,0,0,0,0,0,0,0,0,0,0,0,0,0,0,0,0,0,0,0,0,0,0,0,0,0,0,0,0,0,0,0,0,0,0,0,0,0,0,0,0,0,0.7827,0.7828,0,0.793,0.7931,0.7932,0.7986,0.7987,0.7987,0.7987,0.8089,0.8092,0.8094,0,0,0,0,0,0,0,0,0,0,0,0,0,0.7677,0.7679,0.7827,0.7829,0.783,0.793,0.7931,0.7933,0.7986,0.7987,0.7987,0.7987,0.8088,0.8092,0.8095,0,0,0,0,0,0,0,0,0,0,0,0,0,0.7757,0.768,0.7827,0.7869,0.7874,0.7929,0.7931,0.7933,0.7986,0.7987,0.7987,0.7987,0.8087,0.8091,0.8095,0.8117,0,0,0.8107,0.8109,0,0,0,0,0,0,0,0,0.7752,0.7763,0.7861,0.7866,0.7871,0.7946,0.7916,0.7994,0.7986,0.7943,0.7987,0.7987,0.8041,0.8049,0.8068,0.8121,0.8126,0.8108,0.811,0.8112,0.8113,0,0,0,0,0,0,0,0.7747,0.7758,0.7868,0.7863,0.7869,0.7882,0.7894,0.7931,0.799,0.7947,0.7951,0.7963,0.8044,0.8064,0.8071,0.8127,0.8108,0.8111,0.8113,0.8115,0.8206,0.8206,0,0,0,0,0,0,0.7735,0.7753,0.7865,0.7871,0.7811,0.7885,0.7898,0.7922,0.799,0.8001,0.7963,0.7965,0.8057,0.8066,0.8074,0.8106,0.8112,0.8115,0.8118,0.8206,0.8206,0.8206,0,0,0,0,0,0,0.7731,0.7744,0.786,0.7813,0.7829,0.7887,0.7914,0.7924,0.7944,0.8002,0.8012,0.7972,0.8058,0.8069,0.8106,0.811,0.8117,0.8121,0.8206,0.8206,0.8206,0.8167,0,0,0,0,0,0,0.7727,0.7743,0.7751,0.7813,0.7832,0.7891,0.7914,0.7925,0.7951,0.7955,0.8013,0.8023,0.8059,0.81,0.811,0.8116,0.8124,0.8206,0.8206,0.8206,0.8168,0.8166,0.8164,0,0,0,0,0,0.7721,0.7735,0.7752,0.7765,0.7844,0.7891,0.7901,0.7942,0.7951,0.796,0.7998,0.8021,0.8108,0.8104,0.8115,0.8122,0.8206,0.8206,0.8206,0.8169,0.8166,0.8164,0,0,0,0,0,0,0.7671,0.7744,0.7763,0.7798,0.7838,0.79,0.7913,0.7937,0.7975,0.7977,0.8026,0.8039,0.8072,0.8101,0.8095,0.8147,0.8159,0.8162,0.8127,0.8125,0.8123,0.8115,0.8127,0,0,0,0,0,0.7664,0.7697,0.7759,0.7783,0.7803,0.7854,0.7876,0.7905,0.7948,0.7965,0.8005,0.8046,0.8082,0.8105,0.8142,0.8173,0.8187,0.8183,0.8181,0.8178,0.818,0.82,0.82,0.8206,0.8206,0.8206,0,0,0.765,0.7694,0.7712,0.7775,0.7809,0.7842,0.7868,0.7901,0.7926,0.797,0.8008,0.8039,0.8088,0.8122,0.814,0.8147,0.8182,0.8179,0.8176,0.8179,0.82,0.82,0.8199,0.8206,0.8206,0.8206,0,0,0.7642,0.7678,0.7703,0.7738,0.779,0.7825,0.7831,0.789,0.7913,0.7952,0.7986,0.8016,0.8077,0.8111,0.8136,0.8143,0.8166,0.8153,0.8141,0.816,0.8159,0.8159,0.8163,0.8163,0.8154,0.8154,0.8154,0,0.7617,0.7668,0.7713,0.7745,0.7772,0.7814,0.7841,0.7872,0.7933,0.7951,0.7958,0.8038,0.8073,0.8118,0.8119,0.8138,0.8147,0.8147,0.8156,0.8156,0.8157,0.8161,0.8162,0.8152,0.8153,0.8153,0.8153,0,0.7637,0.7672,0.7686,0.7746,0.7774,0.7803,0.7852,0.7876,0.7902,0.7935,0.7976,0.802,0.8068,0.808,0.8105,0.8128,0.8132,0.8147,0.816,0.8154,0.8158,0.816,0.815,0.815,0.8151,0.8151,0,0,0.7598,0.7684,0.7689,0.7717,0.7779,0.7807,0.7838,0.7885,0.7905,0.7946,0.7974,0.8026,0.8041,0.807,0.8099,0.8116,0.8119,0.813,0.8131,0.8127,0.8149,0.8138,0.8139,0.8135,0.8136,0.8136,0.8146,0,0.7599,0.7658,0.77,0.7743,0.7776,0.7818,0.7845,0.7886,0.7918,0.7951,0.7987,0.8024,0.8041,0.8059,0.8077,0.8115,0.8125,0.8115,0.8162,0.8163,0.8149,0.8141,0.8129,0.8135,0.8147,0.8148,0.8148,0,0.7608,0.765,0.7696,0.7756,0.7772,0.7796,0.7844,0.7874,0.7922,0.7945,0.7977,0.8008,0.8043,0.8053,0.8102,0.8094,0.8116,0.8138,0.8139,0.8146,0.8155,0.8148,0.8138,0.8139,0.8151,0.8151,0.815,0,0.7577,0.7645,0.7682,0.7705,0.7775,0.7791,0.7821,0.7869,0.7895,0.7937,0.7955,0.7999,0.8023,0.8057,0.8099,0.8102,0.8144,0.8157,0.8164,0.8163,0.8172,0.8171,0.8166,0.8184,0.8184,0.8184,0.8184,0,0.7575,0.7602,0.7669,0.7692,0.7724,0.7772,0.7801,0.7835,0.7877,0.7907,0.7945,0.7972,0.8026,0.806,0.8092,0.8129,0.8139,0.8159,0.8167,0.8156,0.8154,0.8171,0.8172,0.8184,0.8184,0.8184,0.8184,0,0.7546,0.7592,0.7635,0.7699,0.7716,0.7737,0.7791,0.7815,0.785,0.7888,0.7899,0.7954,0.7996,0.8042,0.8098,0.812,0.8156,0.8167,0.814,0.8145,0.815,0.8149,0.8157,0.8161,0.8175,0.8175,0.8175,0,0.7541,0.7563,0.763,0.7654,0.7683,0.772,0.7748,0.7796,0.7823,0.788,0.7897,0.7942,0.7981,0.8046,0.8091,0.8135,0.8148,0.8148,0.8155,0.8143,0.8149,0.8148,0.8151,0.8146,0.8145,0.8145,0.8145,0,0.7529,0.7551,0.759,0.7638,0.767,0.771,0.775,0.7767,0.7823,0.7852,0.7896,0.7926,0.7985,0.803,0.808,0.811,0.8137,0.8142,0.8147,0.8135,0.8119,0.8129,0.8135,0.8142,0.8142,0.8142,0.8143,0.8143,0.7513,0.7535,0.7586,0.7629,0.7665,0.7703,0.7729,0.7768,0.7806,0.7859,0.7885,0.7929,0.7977,0.8047,0.8077,0.8112,0.812,0.8126,0.8128,0.8129,0.8126,0.8113,0.8121,0.8121,0.8122,0.8122,0.8122,0,0.7504,0.7539,0.7578,0.7635,0.7668,0.7692,0.7739,0.7765,0.7804,0.7847,0.7885,0.7937,0.798,0.8029,0.8076,0.8095,0.8108,0.8106,0.8105,0.8112,0.8116,0.8108,0.8094,0.8094,0.8094,0.8094,0.8094,0.8094,0.7503,0.7542,0.7571,0.7629,0.7664,0.7709,0.7734,0.7769,0.7804,0.786,0.7897,0.7929,0.7975,0.8026,0.8067,0.808,0.8096,0.809,0.8107,0.8109,0.8111,0.8114,0.8107,0.8093,0.8093,0.81,0.81,0.81]}]]